RH
98 96 98 90 88 84 75 75 78 81 82 77 62 54 47 40 28 41 28 22 26 22 30 34 31 28 25 24 23 23 29 34 31 26 27 18 19 16 14 14 14 15 15 29 55
95 96 97 95 93 87 81 74 74 80 83 81 69 55 46 38 52 34 23 22 24 23 29 24 25 24 21 24 23 24 32 31 18 13 18 17 16 16 15 15 15 16 25 41 65
92 93 96 97 98 93 86 80 72 82 87 82 70 60 46 34 34 18 31 32 23 24 29 24 23 22 22 22 22 24 28 23 16 16 14 15 15 14 15 18 15 14 13 33 50
99 98 98 97 100 100 90 84 76 82 92 83 69 61 46 52 25 24 24 30 26 44 27 25 21 24 24 24 21 24 19 18 18 18 18 17 16 15 15 14 12 12 14 26 35
99 98 97 99 98 100 94 89 77 84 92 82 72 64 46 30 22 18 20 29 39 40 23 23 21 19 25 22 20 22 18 18 17 17 19 19 17 16 16 13 13 15 20 24 26
93 98 99 99 96 99 98 91 80 88 90 82 75 66 44 33 19 20 37 48 40 30 23 23 18 17 17 18 20 18 19 17 17 16 17 19 16 19 13 14 14 16 17 21 26
89 95 99 99 100 99 100 94 84 90 86 86 77 68 47 28 22 36 39 40 36 28 22 22 20 18 19 22 20 19 21 19 18 18 19 19 20 20 13 15 14 15 15 20 25
81 87 96 92 99 100 100 96 89 86 86 87 77 68 39 28 28 27 29 30 31 28 23 22 20 19 20 20 21 22 22 22 17 18 19 19 16 13 14 15 15 14 14 19 20
66 85 92 85 89 100 100 92 93 90 87 84 71 52 34 27 30 23 22 26 27 27 23 21 19 21 22 22 24 25 21 23 20 18 19 19 17 14 18 17 15 14 14 17 19
72 70 87 80 81 98 95 99 94 100 94 86 66 47 30 23 24 28 25 24 27 24 22 21 21 23 22 24 26 24 25 23 23 20 22 22 21 16 14 15 16 13 13 15 18
78 62 69 86 80 90 99 100 100 94 83 50 41 31 23 23 28 26 26 24 22 25 27 23 24 26 21 21 20 22 23 24 20 23 26 25 23 19 16 15 17 14 13 14 17
79 80 71 84 86 79 98 98 66 53 78 62 47 41 37 36 25 25 25 25 27 32 26 30 28 20 19 22 26 25 26 26 23 24 24 24 24 19 16 15 14 14 14 13 16
88 81 78 77 86 75 93 92 91 40 56 56 54 40 33 32 24 23 22 21 28 30 30 29 25 24 25 28 29 27 27 25 28 24 23 24 23 20 16 17 16 16 15 13 14
91 84 78 82 69 92 90 88 90 69 91 64 58 42 33 25 30 21 24 21 28 31 29 29 25 30 28 27 26 29 25 27 28 32 32 23 31 21 19 18 15 15 15 16 16
80 88 84 84 75 72 95 97 96 88 98 51 40 27 27 28 26 28 26 26 26 30 31 32 33 32 32 29 26 28 27 29 30 30 29 28 34 22 19 18 13 14 18 18 18
89 93 89 88 86 80 71 92 99 99 96 63 38 42 38 31 29 30 30 25 22 26 32 27 28 26 26 25 27 26 27 29 31 30 40 28 30 26 17 12 13 14 15 20 22
89 94 84 89 78 74 90 89 99 98 71 64 46 39 33 37 34 29 33 34 33 40 40 33 33 29 28 31 30 27 29 39 40 43 38 28 31 24 16 14 14 14 14 19 24
86 91 93 84 86 84 86 99 97 81 79 43 43 39 38 32 35 33 34 35 28 28 31 41 44 32 27 27 31 31 30 34 45 36 30 34 32 20 16 15 14 16 18 21 27
87 84 94 87 87 90 95 98 86 91 54 45 42 43 39 33 32 34 35 34 30 28 34 38 37 28 26 25 24 33 39 26 33 33 38 27 22 18 13 12 17 18 24 26 28
90 83 79 85 90 89 100 92 85 80 49 38 45 38 44 39 38 36 35 30 31 28 22 31 38 32 29 25 27 27 24 37 35 44 45 30 28 22 15 15 17 17 22 26 32
89 88 73 81 89 92 97 81 56 51 68 42 39 45 36 40 35 38 32 29 26 30 24 26 29 37 32 32 31 31 32 29 27 30 34 33 26 15 16 17 18 18 19 25 30
85 100 74 88 95 76 90 67 51 60 58 61 46 37 37 36 38 37 34 30 25 29 34 26 28 34 36 27 26 25 28 27 35 36 33 32 31 15 17 17 19 18 18 22 28
96 81 76 85 99 94 62 70 55 66 77 68 44 36 37 38 42 35 34 30 30 31 31 28 33 39 39 34 31 33 30 27 27 27 35 37 29 18 17 18 17 19 17 18 26
94 93 93 95 92 85 82 57 59 43 61 77 43 39 39 37 33 40 39 43 33 31 44 31 31 33 37 32 27 35 32 30 30 36 35 32 29 21 19 18 18 16 17 18 21
94 82 80 94 91 83 77 73 60 56 57 68 67 42 34 40 38 40 37 44 43 39 37 29 38 33 29 28 28 28 30 30 32 29 32 27 26 22 19 18 18 17 17 18 18
86 97 86 97 84 94 80 80 81 50 72 82 82 52 37 36 33 43 36 33 36 46 35 33 37 34 38 32 31 33 30 27 28 27 26 26 26 19 18 17 19 18 18 20 21
87 84 91 70 68 97 95 75 88 57 53 63 62 56 53 35 27 28 30 29 33 37 37 37 38 40 44 33 37 46 36 31 29 27 26 32 25 20 20 21 21 20 19 20 20
Wind_Speed
17 19 21 21 19 17 16 16 15 14 14 15 14 14 15 18 20 11 12 8 2 9 9 7 4 3 2 3 1 1 5 5 4 5 4 4 6 4 0 5 4 5 1 5 14
20 19 21 23 22 20 18 16 16 15 14 14 14 14 14 17 16 16 15 11 9 8 8 11 8 5 4 3 3 5 5 4 1 1 0 3 4 5 5 6 7 7 6 9 15
19 21 21 22 25 23 20 17 17 15 15 14 14 14 12 14 9 3 1 5 16 11 7 7 6 5 5 3 4 3 8 3 4 2 1 2 3 3 6 7 8 8 7 12 17
17 20 21 22 25 26 22 19 17 13 15 13 13 12 10 4 5 3 5 6 15 12 9 9 6 8 7 7 3 7 3 3 2 3 3 3 0 5 9 10 1 3 4 12 15
21 19 19 23 23 27 24 20 17 14 15 12 11 10 4 5 10 10 12 6 16 14 13 10 8 8 12 9 6 8 5 4 3 4 4 2 9 11 10 10 6 4 7 11 12
21 21 18 22 24 26 26 21 17 15 14 11 9 7 4 10 6 8 3 6 11 14 11 8 6 6 6 6 11 4 5 4 4 6 4 6 11 4 9 6 10 9 11 11 12
21 21 20 19 19 21 24 20 17 14 11 9 7 4 8 15 4 4 4 4 8 11 8 10 4 6 6 5 2 3 6 6 9 4 5 3 12 15 16 8 11 11 11 11 12
22 22 22 20 20 19 24 22 18 14 11 8 6 5 8 8 10 20 8 5 6 8 4 6 7 3 2 6 4 4 4 7 4 4 2 6 13 8 3 7 12 11 11 11 14
20 21 22 24 22 19 19 22 16 14 11 7 5 7 9 4 8 16 17 9 8 7 4 6 6 3 5 8 6 4 8 6 4 3 2 8 8 1 2 4 8 10 12 13 14
19 22 21 23 23 23 14 23 18 14 9 5 4 5 9 6 7 7 16 13 5 12 8 6 5 9 8 10 10 9 9 7 9 3 5 8 16 16 15 12 15 14 13 14 16
19 19 21 22 24 22 18 11 6 4 11 10 10 7 2 3 5 7 12 15 7 12 13 10 11 16 20 16 13 9 7 11 12 4 5 14 17 17 17 16 17 17 17 16 18
18 17 20 19 21 24 20 6 15 4 6 24 14 16 8 1 6 8 16 14 12 14 12 7 18 19 13 11 11 11 12 14 12 4 5 14 19 20 19 21 20 19 19 19 17
18 16 17 17 20 21 13 18 13 7 5 7 22 11 6 9 6 16 17 16 17 17 18 19 10 11 14 10 12 14 15 14 12 10 10 10 16 12 10 11 15 16 17 17 19
19 17 16 15 14 6 6 21 19 10 4 9 14 13 11 8 8 10 20 16 7 21 16 15 11 13 14 19 16 17 12 12 12 10 11 2 9 15 16 19 17 16 13 14 16
21 18 17 13 8 7 4 13 7 8 6 12 21 10 18 20 14 12 18 6 18 14 13 12 14 17 14 14 14 15 5 9 8 12 11 14 9 5 10 19 15 3 2 9 13
20 21 20 18 19 16 18 17 6 6 9 8 14 20 19 26 19 8 12 4 5 12 6 16 2 13 18 12 15 10 6 3 2 5 12 15 13 8 7 6 7 5 6 4 10
23 24 23 19 16 9 5 5 5 6 12 11 12 20 31 18 26 17 18 19 13 13 17 14 13 6 4 11 5 15 10 7 7 6 12 2 6 15 19 14 15 15 13 5 7
27 29 22 23 19 18 3 3 10 8 11 6 9 15 28 20 25 23 20 21 24 20 12 15 11 17 14 19 9 18 18 9 9 10 7 3 7 3 5 9 13 11 10 7 8
28 20 13 18 19 17 3 5 6 5 16 11 18 19 18 20 14 21 28 26 25 24 15 15 14 9 12 12 17 8 12 15 17 7 8 11 12 14 20 9 3 7 6 6 8
19 18 17 10 20 14 4 12 10 4 10 19 12 16 22 28 18 22 24 23 26 26 21 9 5 7 11 6 2 12 12 7 8 10 13 8 8 8 12 10 11 10 6 3 7
13 3 5 19 19 6 7 8 15 16 14 13 11 9 17 26 25 27 19 12 30 24 23 14 11 6 8 16 19 9 10 6 6 12 10 11 6 5 4 3 10 9 6 3 8
4 4 4 24 7 6 12 9 12 16 18 11 5 4 18 23 22 22 24 19 24 24 31 22 12 12 14 4 11 22 20 21 12 11 7 12 16 7 8 8 6 8 5 2 5
2 5 12 17 8 10 13 12 15 10 15 7 12 9 6 17 13 18 16 8 18 24 21 18 12 12 8 6 4 12 18 19 22 14 20 13 5 4 5 5 3 6 3 2 6
2 3 3 5 6 10 18 22 24 19 23 15 7 4 9 13 7 16 13 5 15 22 12 21 11 22 13 4 14 14 17 18 20 15 15 19 19 17 16 15 11 6 7 5 5
3 3 1 4 9 19 18 9 25 21 22 15 12 14 14 10 15 10 13 7 6 9 14 17 20 16 20 8 11 14 15 19 23 23 20 17 21 18 20 18 13 13 12 13 10
3 2 2 7 12 14 19 20 19 28 10 20 18 25 14 12 16 14 15 16 14 8 20 9 10 18 16 14 13 14 17 19 22 23 23 21 23 16 17 16 15 14 13 12 10
3 4 3 8 13 8 11 26 23 25 26 22 27 18 20 15 11 11 8 11 12 16 20 16 10 12 17 16 13 15 20 20 19 17 19 20 21 21 14 15 15 13 11 12 9
Wind_Direction
292 279 272 271 272 282 287 283 286 290 298 306 313 316 319 319 314 295 258 239 230 214 187 179 180 167 178 148 141 224 227 214 188 190 153 154 194 165 210 171 186 180 270 106 144
306 292 278 269 268 270 278 282 281 284 291 301 307 312 320 322 312 274 254 233 217 185 187 194 196 184 181 162 160 230 235 212 142 157 200 166 230 176 207 197 210 205 158 142 159
317 298 286 274 266 264 269 275 276 279 285 291 302 310 320 325 291 241 319 237 217 199 205 209 197 208 194 192 181 175 236 182 177 204 214 194 230 203 227 222 233 235 213 176 180
318 324 295 279 268 262 263 267 271 268 278 285 296 303 315 310 280 171 325 320 197 190 176 176 191 203 202 198 168 226 219 209 151 180 194 242 250 237 232 257 345 262 239 186 196
310 316 314 297 272 260 257 260 263 255 268 277 287 299 314 233 250 274 296 310 169 178 187 186 189 207 215 211 181 229 220 210 228 219 234 258 254 271 249 250 240 231 206 210 209
306 305 310 318 279 265 250 254 252 245 261 265 276 286 240 251 250 264 258 165 180 179 190 190 205 208 212 214 215 168 204 220 243 233 238 248 264 249 246 257 228 216 225 217 211
299 299 303 317 296 269 260 248 242 241 251 254 256 243 242 244 216 213 171 196 190 192 185 203 183 196 160 168 156 162 226 227 227 236 240 258 261 245 263 232 242 225 222 217 213
294 294 295 299 324 283 256 236 231 230 236 241 235 212 252 246 239 242 223 229 194 196 218 191 173 149 227 126 144 217 240 246 129 175 126 208 272 273 292 231 247 241 226 216 213
283 293 293 293 305 320 269 226 220 213 220 211 194 219 259 243 226 231 210 205 188 178 158 132 176 170 165 206 216 210 253 236 271 188 171 220 279 139 141 219 258 245 234 224 222
279 287 292 298 290 321 316 205 193 192 169 155 234 213 237 221 185 188 195 188 166 159 149 173 185 197 210 214 222 231 234 239 256 155 209 251 264 275 279 268 265 259 243 230 224
276 275 292 295 299 291 334 180 146 167 192 195 197 231 113 199 158 185 174 170 146 187 193 188 205 210 213 222 247 246 243 270 274 259 272 273 278 282 282 276 260 256 246 234 225
287 279 284 292 301 305 291 258 206 151 187 228 239 252 258 242 180 181 170 177 186 198 195 183 220 222 228 216 212 230 248 260 281 280 245 292 287 284 276 269 267 264 253 240 227
308 290 281 294 296 302 259 264 255 175 262 173 222 230 212 200 209 183 185 190 196 198 200 210 213 190 195 195 212 230 246 260 268 307 255 295 277 263 277 259 268 254 250 246 227
319 305 283 288 300 290 264 290 237 250 219 207 181 232 215 185 226 176 193 178 188 209 203 226 194 186 199 216 217 242 228 253 267 282 285 351 289 291 290 284 271 270 247 237 227
317 305 293 263 269 270 337 358 173 129 224 186 183 172 179 194 138 194 185 186 194 178 197 198 191 200 206 216 209 246 221 241 256 264 292 252 273 270 278 280 296 346 286 250 229
315 309 292 278 254 258 277 300 323 180 223 197 160 176 163 200 203 133 173 204 190 194 224 230 168 210 217 209 190 146 145 149 198 258 254 259 239 283 264 275 300 292 285 302 210
307 306 283 264 252 272 282 328 216 225 146 184 184 178 188 181 189 176 181 188 181 188 206 198 208 185 171 179 162 194 209 238 236 215 257 63 241 257 274 294 288 289 298 307 207
310 309 285 249 250 237 242 165 240 195 199 181 174 180 196 160 198 193 185 198 208 205 188 200 208 203 184 216 187 202 210 220 242 256 282 147 234 220 284 291 287 278 279 282 204
314 312 273 242 220 212 173 204 229 178 192 168 147 167 192 188 180 188 203 203 197 197 195 201 222 182 190 194 204 176 218 236 258 265 265 253 248 274 280 287 300 317 287 255 203
312 302 268 235 195 196 193 219 243 212 242 169 164 191 184 186 187 195 193 209 201 198 203 186 209 178 174 171 165 211 160 186 214 242 245 236 255 250 292 337 339 336 292 233 193
298 261 242 191 177 203 240 215 228 251 271 221 192 170 195 181 193 195 196 193 196 188 201 188 223 146 170 204 197 182 195 215 251 233 247 260 242 216 259 309 330 331 327 252 195
284 263 294 165 183 208 217 206 248 267 250 265 256 160 186 180 193 194 209 201 194 181 194 193 206 209 207 169 257 220 217 211 220 194 239 265 262 236 265 301 302 303 318 251 199
260 272 253 193 209 212 225 217 226 253 234 241 230 209 166 174 182 201 204 197 182 185 188 175 203 202 206 208 189 219 216 231 230 246 251 238 246 165 220 265 267 277 257 241 189
265 283 239 215 230 230 215 215 223 238 245 261 260 170 165 180 191 185 190 163 186 189 187 175 200 211 210 237 186 205 213 213 222 230 237 242 257 264 263 268 276 262 249 237 212
218 255 318 284 239 234 229 228 212 218 217 212 248 220 189 171 184 184 165 139 163 186 185 190 214 213 230 208 206 208 205 208 220 232 239 251 253 248 252 264 264 262 257 251 262
254 265 296 286 295 251 227 232 226 215 218 217 225 222 215 194 191 175 165 178 175 177 190 203 216 208 219 219 221 226 225 226 224 230 241 246 257 263 263 275 272 263 255 253 242
235 248 260 276 275 290 246 215 215 217 206 226 208 219 229 237 200 187 148 162 159 167 181 179 170 188 227 219 231 248 227 228 230 229 232 236 246 259 257 259 254 259 251 257 258